, NM

(GMT )
Holloman AFB

Weather History for KHMN - July, 2013

Change the Weather History Date:

Tuesday, July 9, 2013

  Actual Average Record
Temperature  
Mean Temperature 85 °F -  
Max Temperature 97 °F 92 °F 102 °F (2003)
Min Temperature 73 °F 66 °F 62 °F (1997)
Cooling Degree Days 20    
Growing Degree Days 35 (Base 50)    
Moisture  
Dew Point 53 °F    
Average Humidity 32    
Maximum Humidity 57    
Minimum Humidity 22    
Precipitation  
Precipitation 0.00 in - - ()
Sea Level Pressure  
Sea Level Pressure 30.00 in    
Wind  
Wind Speed 6 mph (South)    
Max Wind Speed 17 mph    
Max Gust Speed 25 mph    
Visibility 10 miles    
Events Thunderstorm    
Averages and records for this station are not official NWS values.
T = Trace of Precipitation, MM = Missing Value Source: NWS Daily Summary

Daily Weather History Graph

Daily Weather History Graph

Search for Another Location

Airport or City:

Trip Planner

Search our weather history database for the weather conditions in past years. The results will help you decide how hot, cold, wet, or windy it might be!

Date:

Astronomy

Jul. 09, 2013 Rise Set
Actual Time 6:03 AM MDT 8:15 PM MDT
Civil Twilight 5:35 AM MDT 8:43 PM MDT
Nautical Twilight 5:01 AM MDT 9:18 PM MDT
Astronomical Twilight 4:23 AM MDT 9:55 PM MDT
Moon 7:23 AM MDT (7/9) 9:03 PM MDT (7/9)
Length of Visible Light 15h 08m
Length of Day
14h 11m
New Moon, 2% of the Moon is Illuminated
Jul 9
New Moon
Jul 15
First Quarter
Jul 22
Full
Jul 29
Last Quarter
Aug 6
New

Hourly Weather History & Observations

Time (MDT) Temp. Heat Index Dew Point Humidity Pressure Visibility Wind Dir Wind Speed Gust Speed Precip Events Conditions
12:58 AM - - - N/A% - 10.0 mi NNW 3.5 mph - N/A   Clear
1:58 AM - - - N/A% - 10.0 mi NW 11.5 mph - N/A   Clear
2:58 AM - - - N/A% - 10.0 mi NNW 9.2 mph - N/A   Clear
3:58 AM 75.2 °F - 57.2 °F 53% 30.09 in 10.0 mi NW 4.6 mph - N/A   Clear
4:58 AM 75.2 °F - 57.2 °F 53% 29.92 in 10.0 mi South 3.5 mph - N/A   Clear
5:58 AM 73.4 °F - 57.2 °F 57% 29.92 in 10.0 mi South 2.3 mph - N/A   Clear
6:58 AM 75.2 °F - 55.4 °F 50% 29.94 in 10.0 mi NE 4.6 mph - N/A   Clear
7:58 AM 77.0 °F - 55.4 °F 47% 29.96 in 10.0 mi Calm Calm - N/A   Mostly Cloudy
8:58 AM 80.6 °F 80.5 °F 55.4 °F 42% 29.96 in 10.0 mi SE 3.5 mph - N/A   Mostly Cloudy
9:58 AM 86.0 °F 84.2 °F 53.6 °F 33% 29.95 in 10.0 mi Calm Calm - N/A   Scattered Clouds
10:58 AM 87.8 °F 85.7 °F 53.6 °F 31% 29.94 in 10.0 mi North 6.9 mph - N/A   Mostly Cloudy
11:23 AM 87.8 °F 86.1 °F 55.4 °F 33% 29.94 in 10.0 mi North 3.5 mph - N/A   Scattered Clouds
11:58 AM 88.2 °F 86.3 °F 54.5 °F 32% 30.16 in 10.0 mi NW 5.8 mph - N/A   Clear
12:58 PM 91.9 °F 89.5 °F 54.0 °F 27% 30.13 in 10.0 mi Variable 3.5 mph - N/A   Partly Cloudy
1:58 PM 92.3 °F 89.9 °F 53.8 °F 27% 30.11 in 10.0 mi Variable 1.2 mph - N/A   Partly Cloudy
2:58 PM 95.0 °F 92.7 °F 54.1 °F 25% 30.08 in 10.0 mi NW 6.9 mph - N/A   Clear
3:58 PM 96.1 °F 93.8 °F 54.0 °F 24% 30.05 in 10.0 mi Variable 1.2 mph - N/A   Clear
4:58 PM 97.0 °F 94.6 °F 53.1 °F 23% 30.02 in 10.0 mi Calm Calm - N/A   Clear
5:58 PM 95.9 °F 93.6 °F 53.2 °F 24% 30.00 in 10.0 mi NNW 2.3 mph - N/A   Clear
6:58 PM 96.1 °F - 50.9 °F 22% 29.99 in 10.0 mi SW 4.6 mph - N/A   Clear
7:58 PM 94.3 °F - 50.9 °F 23% 30.00 in 10.0 mi South 10.4 mph - N/A   Clear
8:43 PM 91.4 °F - 48.2 °F 23% 30.01 in 9.0 mi SSW 16.1 mph - N/A   Clear
8:58 PM 90.3 °F - 49.6 °F 25% 30.01 in 5.0 mi South 13.8 mph - N/A   Haze
9:03 PM 89.6 °F - 50.0 °F 26% 30.01 in 7.0 mi South 11.5 mph - N/A   Clear
9:08 PM 89.6 °F - 50.0 °F 26% 30.02 in 10.0 mi ESE 9.2 mph - N/A Thunderstorm Clear
9:13 PM 89.6 °F - 48.2 °F 24% 30.02 in 9.0 mi East 11.5 mph - N/A Thunderstorm Clear
9:23 PM 89.6 °F - 50.0 °F 26% 30.04 in 10.0 mi SSE 17.3 mph 21.9 mph N/A   Clear
9:58 PM 88.0 °F - 50.2 °F 27% 30.05 in 10.0 mi SSE 17.3 mph 25.3 mph N/A   Clear
10:58 PM 86.2 °F - 51.3 °F 30% 29.84 in 10.0 mi SSE 15.0 mph - N/A   Clear
11:58 PM 84.2 °F - 52.5 °F 33% 29.86 in 10.0 mi South 17.3 mph - N/A   Clear